Weather History for Truth Or Consequences, NM

Change the Weather History Date:

Wednesday, September 19, 2012

  Actual Average Record
Temperature  
Mean Temperature 73 °F -  
Max Temperature 89 °F 83 °F 91 °F (1997)
Min Temperature 56 °F 57 °F 48 °F (2006)
Degree Days  
Heating Degree Days 0    
Month to date heating degree days 13  
Since 1 July heating degree days 13  
Cooling Degree Days 8    
Month to date cooling degree days 167  
Year to date cooling degree days 1948  
Growing Degree Days 22 (Base 50)    
Moisture  
Dew Point 32 °F    
Average Humidity 25    
Maximum Humidity 40    
Minimum Humidity 9    
Precipitation  
Precipitation 0.00 in - 0.08 in (1999)
Month to date precipitation 0.35  
Year to date precipitation 2.56  
Sea Level Pressure  
Sea Level Pressure 29.96 in    
Wind  
Wind Speed 7 mph (SSW)    
Max Wind Speed 13 mph    
Max Gust Speed 16 mph    
Visibility 10 miles    
Events      
T = Trace of Precipitation, MM = Missing Value Source: NWS Daily Summary

Daily Weather History Graph

Daily Weather History Graph

Search for Another Location

Airport:

Trip Planner

Search our weather history database for the weather conditions in past years. The results will help you decide how hot, cold, wet, or windy it might be!

Date:

Astronomy

Sep. 19, 2012 Rise Set
Actual Time 6:55 AM MDT 7:09 PM MDT
Civil Twilight 6:30 AM MDT 7:33 PM MDT
Nautical Twilight 6:01 AM MDT 8:02 PM MDT
Astronomical Twilight 5:32 AM MDT 8:32 PM MDT
Moon 10:53 AM MDT (9/19) 9:37 PM MDT (9/19)
Length of Visible Light 13h 03m
Length of Day
12h 13m
Waxing Crescent, 17% of the Moon is Illuminated
Sep 19
Waxing Crescent
Sep 22
First Quarter
Sep 29
Full
Oct 8
Last Quarter
Oct 15
New

Hourly Weather History & Observations

Time (MDT) Temp. Dew Point Humidity Pressure Visibility Wind Dir Wind Speed Gust Speed Precip Events Conditions
12:53 AM 62.1 °F 30.9 °F 31% 29.99 in 10.0 mi WNW 8.1 mph - N/A   Clear
1:53 AM 63.0 °F 33.1 °F 33% 29.98 in 10.0 mi West 6.9 mph - N/A   Clear
2:53 AM 61.0 °F 34.0 °F 36% 29.98 in 10.0 mi West 6.9 mph - N/A   Clear
3:53 AM 63.0 °F 34.0 °F 34% 29.96 in 10.0 mi West 5.8 mph - N/A   Clear
4:53 AM 59.0 °F 34.0 °F 39% 29.98 in 10.0 mi West 8.1 mph - N/A   Clear
5:53 AM 60.1 °F 34.0 °F 38% 29.99 in 10.0 mi West 5.8 mph - N/A   Clear
6:53 AM 57.0 °F 34.0 °F 42% 30.02 in 10.0 mi West 5.8 mph - N/A   Clear
7:53 AM 61.0 °F 35.1 °F 38% 30.04 in 10.0 mi West 6.9 mph - N/A   Clear
8:53 AM 69.1 °F 35.1 °F 29% 30.03 in 10.0 mi WSW 5.8 mph - N/A   Clear
9:53 AM 73.0 °F 39.0 °F 29% 30.02 in 10.0 mi South 6.9 mph - N/A   Clear
10:53 AM 75.9 °F 37.9 °F 25% 30.02 in 10.0 mi South 8.1 mph - N/A   Clear
11:53 AM 80.1 °F 37.0 °F 21% 30.01 in 10.0 mi South 5.8 mph - N/A   Clear
12:53 PM 84.0 °F 35.1 °F 17% 29.99 in 10.0 mi Variable 4.6 mph - N/A   Clear
1:53 PM 86.0 °F 28.0 °F 12% 29.94 in 10.0 mi SE 8.1 mph - N/A   Clear
2:53 PM 87.1 °F 21.0 °F 9% 29.91 in 10.0 mi ESE 8.1 mph - N/A   Clear
3:53 PM 89.1 °F 25.0 °F 10% 29.88 in 10.0 mi ENE 8.1 mph - N/A   Clear
4:53 PM 88.0 °F 26.1 °F 11% 29.89 in 10.0 mi South 6.9 mph - N/A   Clear
5:53 PM 87.1 °F 27.0 °F 11% 29.88 in 10.0 mi SSE 8.1 mph - N/A   Clear
6:53 PM 82.9 °F 27.0 °F 13% 29.91 in 10.0 mi SE 5.8 mph - N/A   Clear
7:53 PM 79.0 °F 28.0 °F 15% 29.92 in 10.0 mi South 4.6 mph - N/A   Clear
8:53 PM 75.9 °F 30.0 °F 19% 29.92 in 10.0 mi SSE 4.6 mph - N/A   Clear
9:53 PM 75.0 °F 28.9 °F 18% 29.93 in 10.0 mi SSW 8.1 mph - N/A   Clear
10:53 PM 73.9 °F 30.9 °F 21% 29.92 in 10.0 mi SSW 8.1 mph - N/A   Clear
11:53 PM 70.0 °F 30.9 °F 24% 29.93 in 10.0 mi WSW 5.8 mph - N/A   Clear